Location: Newark
(43.6583°N, 1.6617°E)
Time: 09:04:27
(UTC+00:00)

A-11 Canister half - Visible Passes

Search period start: 22 August 2019 00:00
Search period end: 01 September 2019 00:00
Orbit: 1514 x 1686 km, 47.2° (Epoch: 21 August)

Date Brightness Start Highest point End Pass type
(mag) Time Alt. Az. Time Alt. Az. Time Alt. Az.
22 Aug 9.8 00:40:52 10° WNW 00:46:47 36° W 00:46:47 36° W visible
22 Aug 9.2 20:07:21 10° W 20:16:55 73° N 20:26:53 10° E visible
22 Aug 9.0 22:12:45 10° WNW 22:22:33 85° NNE 22:26:09 47° ESE visible
23 Aug 9.7 00:17:54 10° WNW 00:24:17 39° W 00:24:17 39° W visible
23 Aug 9.3 19:44:24 10° W 19:53:56 74° N 20:03:52 10° ENE visible
23 Aug 9.0 21:49:49 10° WNW 21:59:35 83° NNE 22:03:45 42° ESE visible
23 Aug 9.5 23:54:56 10° WNW 00:01:54 44° WSW 00:01:54 44° WSW visible
24 Aug 9.3 19:21:27 10° W 19:30:58 75° N 19:40:53 10° ENE visible
24 Aug 9.0 21:26:53 10° WNW 21:36:37 82° NNE 21:41:27 36° E visible
24 Aug 9.4 23:31:59 10° WNW 23:39:35 49° WSW 23:39:35 49° WSW visible
25 Aug 9.3 18:58:31 10° W 19:08:00 76° N 19:17:52 10° ENE visible
25 Aug 9.1 21:03:57 10° WNW 21:13:39 80° NNE 21:19:12 31° E visible
25 Aug 9.3 23:09:03 10° WNW 23:17:21 54° WSW 23:17:21 54° WSW visible
26 Aug 9.1 20:41:02 10° WNW 20:50:41 79° NNE 20:57:01 26° E visible
26 Aug 9.1 22:46:07 10° WNW 22:55:10 59° SW 22:55:10 59° SW visible
27 Aug 10.9 00:52:45 10° W 00:53:19 11° W 00:53:19 11° W visible
27 Aug 9.1 20:18:06 10° WNW 20:27:42 77° NNE 20:34:53 22° E visible
27 Aug 9.0 22:23:11 10° WNW 22:32:43 62° SW 22:33:02 62° SSW visible
28 Aug 10.8 00:29:35 10° W 00:31:11 14° W 00:31:11 14° W visible
28 Aug 9.2 19:55:10 10° WNW 20:04:45 76° N 20:12:47 18° E visible
28 Aug 9.0 22:00:15 10° WNW 22:09:48 65° SSW 22:10:57 61° S visible
29 Aug 10.6 00:06:26 10° W 00:09:06 17° W 00:09:06 17° W visible
29 Aug 9.2 19:32:14 10° WNW 19:41:46 75° N 19:50:44 14° E visible
29 Aug 9.0 21:37:19 10° WNW 21:46:53 67° SSW 21:48:54 56° SSE visible
29 Aug 10.5 23:43:20 10° W 23:47:04 20° W 23:47:04 20° W visible
30 Aug 9.2 19:09:18 10° WNW 19:18:48 74° N 19:28:40 10° E visible
30 Aug 9.0 21:14:24 10° WNW 21:23:58 70° SSW 21:26:54 49° SSE visible
30 Aug 10.3 23:20:15 10° WNW 23:25:04 23° WSW 23:25:04 23° WSW visible
31 Aug 9.2 18:46:21 10° WNW 18:55:50 74° N 19:05:40 10° E visible
31 Aug 9.0 20:51:29 10° WNW 21:01:03 73° SSW 21:04:57 42° SE visible
31 Aug 10.2 22:57:11 10° WNW 23:03:07 26° WSW 23:03:07 26° WSW visible
